星链-2095 (STARLINK-2095 )

导读 | 星芒AI

STARLINK-2095 是 SpaceX Starlink 卫星互联网项目中的第 2095 颗卫星,属于低轨卫星群的一部分。该卫星采用先进的推进和通信技术,旨在为全球用户提供高速、低延迟的互联网服务。它运行在约 550 公里的轨道高度,与其他 Starlink 卫星协同工作,增强网络覆盖与稳定性。该计划致力于缩小数字鸿沟,特别是在偏远和网络基础设施薄弱的地区。

基本信息
目录编号:
47679
目录名称:
STARLINK-2095
国际标识:
2021-012BM
轨道中心:
EARTH
卫星名称:
星链-2095
卫星全名:
星链-2095 (STARLINK-2095 )
卫星状态:
在轨 (已飞行1716 天)
发射日期:
2021-02-16 UTC
国别 :
美国 (US)
星等 :
--
轨道信息
数据来源 国际轨道数据
星历时间: 2025-10-29T12:24:37+0800
14小时前
查看轨道信息
半长轴: 6825.611km
偏心率: 0.0004724
轨道倾角: 53.040°
近地点辐角 104.131°
升交点赤经 263.123°
平近点角 256.022°
近地点: 444.251km
远地点: 450.701km
周期: 93.535分钟
每日圈数: 15.395382
详细信息
固有亮度:
5
最大亮度:
2.5
卫星平台:
Starlink V1.0
覆盖范围:
全球
运营商:
太空探索技术公司
运营商所在国:
美国
制造商(研发单位):
太空探索技术公司
制造商所在国:
美国
使用方式:
暂无
卫星简介
星链(Starlink)计划是由太空探索技术公司(SpaceX)提出的一个巨型低轨卫星互联网星座项目,计划在2019年至2024年间在太空搭建由约1.2万颗卫星组成的“星链”网络,其中1584颗将部署在地球上空550千米处的近地轨道,并从2020年开始工作。该卫星仍在工作。
2D轨道图
3D轨道图
轨道高度分析图
轨道倾角分析图
轨道综合分析图
查看轨道综合分析图